RH
78 80 84 88 88 91 92 93 93 91 91 92 91 90 86 83 80 80 83 86 87 85 82 82 82 81 82 81 78 76 75 73 69 69 72 72 71 70 68 66 67 67 66 66 67 68 70 67 58 49 44 42 40 37 31 29 33 33 33 32 33 35 37 38 37 37 37 38 39 40 42 44 48 50 51 50 48 49 51 51 51 53 54 55 55 55 56 56 56 57 55 54 55 50 38 33 36
80 82 85 88 89 91 91 92 93 90 92 92 90 91 88 84 81 80 83 84 84 83 81 81 81 80 79 78 77 76 78 76 69 70 70 69 72 71 66 63 62 62 62 63 62 61 61 59 52 45 43 40 38 33 28 30 33 33 33 33 35 37 38 37 36 36 36 37 39 40 42 45 47 48 48 47 47 48 49 49 49 50 52 53 54 54 55 56 58 58 58 57 57 53 41 33 36
83 85 86 86 88 90 91 91 93 91 92 91 90 90 86 85 84 84 84 81 80 80 79 79 79 78 77 77 77 78 79 77 70 68 69 69 70 69 64 60 60 61 61 60 58 57 55 52 47 43 40 38 35 30 28 32 34 33 34 35 36 37 37 36 35 35 35 36 38 40 42 44 45 45 46 45 46 47 47 48 48 49 50 52 53 54 55 56 58 60 60 59 58 55 44 34 34
84 87 86 87 88 90 90 90 91 91 90 89 89 87 84 85 84 85 84 79 79 78 77 78 77 77 77 76 76 78 76 76 71 63 68 71 67 65 61 59 59 61 60 57 55 54 53 49 45 41 38 37 32 28 30 33 33 34 35 37 37 36 36 35 35 35 36 37 39 41 41 42 43 44 45 45 45 45 46 46 47 47 48 50 51 52 53 53 55 58 59 59 58 58 50 38 33
84 86 85 87 90 90 88 88 89 90 88 89 89 84 82 83 83 84 82 80 78 76 75 77 77 76 74 72 71 73 71 73 71 62 66 70 65 62 59 58 59 59 58 56 53 52 50 46 43 39 38 35 29 27 32 33 33 34 35 36 36 36 35 35 36 37 39 41 41 42 42 42 43 44 44 44 44 44 44 44 44 45 46 47 47 47 49 49 51 54 56 58 58 59 58 46 34
84 85 85 86 89 89 88 88 88 86 85 88 89 81 80 81 81 81 79 80 79 76 76 76 76 73 70 67 67 68 65 65 67 64 64 66 63 59 58 57 57 57 55 53 52 49 47 44 41 39 38 32 27 28 31 32 33 33 34 35 36 36 36 38 39 41 43 44 46 46 46 46 45 45 44 43 43 43 43 42 43 43 44 46 46 46 47 48 49 51 53 56 58 58 60 53 39
82 84 85 85 86 87 88 90 85 84 82 84 87 80 79 79 76 76 77 78 78 77 77 75 73 69 67 67 66 65 63 62 64 64 61 61 58 56 57 55 55 55 54 52 49 47 45 43 40 39 35 29 26 29 30 30 31 32 34 35 37 38 39 41 43 46 48 49 50 51 50 50 50 50 49 48 47 46 45 44 44 44 45 46 47 47 47 47 47 49 51 52 55 56 58 56 45
81 84 82 83 84 85 86 86 83 85 84 83 85 79 77 77 74 75 76 76 75 76 76 74 70 68 68 67 67 66 65 64 62 60 58 55 55 56 55 54 55 56 54 52 48 46 44 42 40 37 33 27 26 29 29 28 30 33 35 38 39 40 42 44 47 50 51 51 51 51 52 53 54 54 55 55 55 53 50 48 48 47 47 47 47 48 48 47 47 47 48 49 51 53 55 56 53
81 83 81 82 84 86 85 82 80 84 84 84 84 79 78 78 78 76 73 73 73 74 74 73 71 68 69 68 67 68 66 64 59 58 56 54 54 55 55 55 56 56 54 50 47 45 43 41 38 36 31 26 27 28 27 27 30 35 38 40 41 41 43 45 49 51 50 50 50 51 51 52 54 56 57 58 58 55 52 50 49 48 47 48 48 49 51 51 50 49 48 47 48 50 53 54 54
79 79 81 82 84 86 83 80 80 81 81 85 84 80 81 81 81 77 71 72 72 74 73 72 71 69 68 67 68 70 67 62 59 56 55 54 55 55 56 57 56 56 53 48 46 43 42 40 37 35 30 27 28 26 26 27 31 36 39 41 42 42 43 46 49 49 49 48 49 50 49 49 50 53 54 54 53 51 50 50 50 49 50 51 52 53 53 54 55 56 54 52 50 48 50 53 53
76 77 80 83 85 85 79 77 81 82 81 83 81 77 78 79 79 75 71 71 72 73 73 71 69 67 66 66 68 71 66 62 59 56 54 55 57 57 56 57 57 56 52 47 45 42 41 39 37 35 30 27 27 26 26 28 32 36 39 40 41 41 42 44 47 48 48 48 48 48 47 46 46 47 48 48 47 48 49 49 49 50 50 51 52 52 52 53 53 53 54 55 53 52 51 52 53
75 76 80 84 83 80 75 73 76 80 82 80 76 74 73 76 76 73 71 71 71 70 71 71 68 65 64 65 69 71 68 64 61 57 56 56 59 59 56 56 55 53 50 46 43 39 39 38 37 35 31 27 26 26 27 30 33 35 37 39 40 41 41 42 45 47 47 46 45 44 43 43 43 45 46 47 47 45 44 42 41 41 41 42 43 45 47 49 50 51 51 53 53 53 53 53 53
75 75 79 82 78 75 74 72 72 76 83 80 72 71 70 72 72 70 72 71 71 71 70 70 66 64 63 64 69 71 69 66 62 60 59 60 59 59 58 56 53 50 47 44 41 38 37 38 37 35 31 26 26 27 28 31 32 33 35 37 39 40 41 42 44 45 45 43 41 40 40 40 42 44 43 42 40 38 37 36 34 32 32 33 35 38 42 46 48 49 50 52 54 54 53 53 53
73 73 77 78 74 72 72 71 70 70 78 76 66 67 68 67 67 68 69 69 71 72 70 68 65 63 61 61 65 68 68 65 63 61 61 61 60 60 59 57 53 48 43 40 38 36 35 37 36 34 30 26 27 27 29 31 31 31 33 36 39 40 40 42 43 43 42 39 36 35 35 36 38 37 36 34 33 33 35 35 33 31 30 29 30 32 35 39 41 42 43 46 50 53 54 55 54
69 73 75 75 72 70 68 67 66 64 70 72 64 66 67 66 65 66 66 65 67 70 68 66 64 63 60 58 59 61 64 64 63 63 62 62 62 60 60 58 54 45 40 37 36 34 33 34 34 32 28 25 27 27 29 30 30 30 32 35 38 39 40 39 39 38 37 35 32 30 30 31 31 31 30 29 30 32 34 34 32 32 31 29 29 30 32 34 36 38 39 41 43 44 47 52 55
67 72 75 76 72 69 65 63 65 64 68 73 69 65 67 68 66 66 65 61 62 63 63 62 63 63 58 56 57 56 58 61 62 64 64 63 63 62 60 59 54 45 39 37 35 33 32 31 31 30 26 25 27 27 29 29 28 30 31 34 36 38 37 34 33 32 31 30 28 26 25 26 27 26 25 26 28 30 32 33 34 34 33 33 34 35 37 38 40 39 38 39 38 37 37 39 46
68 71 76 77 72 69 65 62 65 65 64 69 69 65 68 68 65 65 63 59 58 60 62 62 62 60 55 55 57 56 55 57 58 59 61 62 63 61 59 55 53 47 40 37 35 33 32 30 30 28 25 25 26 28 29 28 28 30 31 32 33 33 32 30 28 27 26 25 25 25 24 24 24 23 24 25 28 29 32 33 34 35 36 38 39 42 45 47 48 46 43 41 38 36 36 34 37
68 72 76 74 71 68 65 63 63 63 63 64 65 67 71 70 65 65 63 62 62 64 67 63 59 58 56 55 56 55 54 56 55 55 56 57 58 57 54 52 50 47 41 39 36 32 31 31 30 28 25 25 26 28 28 27 28 30 31 31 30 29 28 26 25 24 25 25 28 29 26 25 25 26 27 27 27 28 29 30 33 36 38 40 42 46 48 50 51 51 49 47 43 39 37 36 35
66 72 75 69 66 66 65 64 62 62 62 62 64 65 69 69 65 64 64 66 66 67 70 67 62 57 55 55 53 54 53 53 55 54 54 54 54 53 51 49 49 45 42 40 37 33 31 32 30 28 26 24 26 27 27 26 28 29 30 30 29 26 25 25 26 26 27 29 32 33 29 28 29 31 32 30 29 29 30 32 35 40 43 45 46 47 49 52 54 53 51 49 45 41 38 35 35
64 68 71 66 63 63 64 65 63 62 60 62 65 63 67 68 62 62 62 65 67 67 66 65 62 56 53 53 51 51 50 50 52 53 54 54 53 53 50 48 46 43 40 39 37 34 32 32 31 30 27 24 25 26 26 26 27 28 28 28 27 25 24 27 30 32 32 33 35 35 32 29 29 32 34 34 32 33 35 37 41 45 48 50 51 49 50 53 54 52 49 47 44 41 38 36 36
62 64 62 60 63 64 64 65 62 61 60 62 63 63 67 65 61 64 62 63 68 66 62 59 58 55 52 51 50 50 49 49 50 51 52 53 53 52 50 49 46 41 39 39 39 35 33 33 31 30 27 25 25 25 24 25 26 27 27 26 25 24 25 31 34 36 37 36 37 37 32 30 31 33 35 37 38 41 43 43 46 48 49 52 54 53 52 52 51 50 47 46 46 42 39 36 36
57 61 57 56 62 64 64 63 60 60 61 62 61 63 64 62 63 66 63 62 65 63 61 59 57 55 52 50 50 50 49 49 49 51 51 51 52 51 49 48 46 42 40 42 42 38 34 33 31 30 28 25 25 24 24 25 26 26 26 25 24 24 26 32 36 37 37 35 36 36 32 34 37 37 40 44 45 47 49 49 50 51 52 54 54 53 53 51 49 48 48 47 47 45 40 37 35
52 56 56 56 59 61 63 61 59 59 59 60 61 61 61 62 64 65 63 63 62 62 61 57 55 54 51 50 51 50 49 49 49 51 51 50 50 50 49 47 45 43 42 42 42 40 35 32 32 30 27 26 25 24 25 25 26 25 26 25 25 26 28 33 37 37 39 35 34 37 36 39 42 43 46 49 50 50 50 51 51 52 54 54 53 51 50 51 49 48 49 49 47 46 43 39 36
51 53 54 57 57 57 62 60 57 56 54 58 61 59 58 61 63 62 64 64 61 63 61 56 53 52 50 48 50 50 50 50 49 50 51 52 51 51 51 50 46 44 43 42 42 40 36 31 31 30 27 26 25 24 25 26 26 25 26 26 25 28 29 33 37 38 40 37 35 38 38 39 42 44 49 52 54 52 50 51 52 52 54 53 52 51 49 51 51 49 50 50 49 48 46 42 39
51 50 52 57 58 56 59 58 57 55 52 56 60 59 57 59 62 60 62 64 62 61 61 58 52 49 47 47 49 49 51 51 50 49 51 52 52 53 54 52 48 45 45 43 41 40 37 33 30 29 27 26 25 24 26 27 26 25 25 26 26 28 30 33 36 37 39 37 37 40 40 40 39 40 47 51 52 52 50 50 51 52 53 52 52 51 48 49 51 51 49 50 51 51 48 44 40
49 49 51 54 56 56 56 55 56 55 53 54 58 60 57 60 62 60 59 62 61 58 57 56 51 47 46 46 46 46 48 49 48 46 48 51 50 52 52 51 49 47 47 45 42 41 39 35 30 28 27 26 26 25 26 28 27 25 24 26 27 29 34 38 38 38 37 35 37 39 42 43 39 38 44 46 47 51 50 49 49 50 52 52 50 49 47 48 49 49 50 51 51 50 49 48 44
46 48 50 51 53 54 54 53 55 57 55 54 56 60 60 63 65 61 58 58 58 57 54 52 51 48 46 44 44 45 46 47 46 44 46 50 49 50 50 50 50 48 48 47 44 41 39 36 31 29 29 26 26 26 27 29 28 24 24 26 29 32 38 42 41 39 37 34 35 38 42 42 40 41 44 44 47 50 49 48 48 48 49 49 46 47 49 50 47 46 49 51 51 50 50 51 47
42 44 47 49 49 50 51 50 53 55 56 53 53 58 59 61 63 60 58 56 58 59 54 51 51 49 46 44 43 45 46 47 46 44 45 46 48 50 50 49 49 47 47 47 46 42 39 37 32 30 29 27 26 28 29 30 28 26 27 29 30 34 39 42 41 39 37 33 33 36 41 43 41 43 46 46 48 48 47 47 47 46 46 45 45 47 48 47 47 47 46 48 51 50 48 48 46
39 38 41 44 45 47 47 47 48 50 54 56 53 56 59 59 60 58 56 58 59 59 55 51 50 48 46 45 44 45 46 47 46 44 43 43 46 48 48 48 47 46 46 47 47 43 40 37 34 32 30 27 26 29 29 30 29 28 30 31 30 33 38 42 40 36 35 34 33 33 39 43 42 44 45 46 47 46 45 45 45 44 43 43 44 44 44 45 47 48 46 46 49 50 44 42 42
39 37 36 38 41 43 43 44 47 46 51 58 55 56 57 56 58 57 55 58 59 57 53 50 49 48 45 45 45 45 45 45 44 43 42 41 44 44 46 47 44 43 45 46 46 43 40 39 36 35 31 27 26 29 31 31 29 29 31 32 31 31 35 39 38 36 36 36 35 34 37 40 40 41 42 43 45 44 44 43 43 41 40 42 41 39 41 46 46 45 45 44 46 46 40 42 44
37 37 35 36 39 42 43 45 48 47 49 55 57 56 56 54 57 57 55 56 57 56 54 52 52 49 46 43 44 45 44 44 43 42 42 41 41 41 43 44 40 41 43 44 46 44 41 39 37 36 32 28 26 29 32 31 29 29 30 32 32 30 31 36 37 37 38 38 36 34 35 35 34 34 35 38 41 43 45 44 44 42 39 41 40 38 43 47 46 43 40 41 42 40 38 46 49
34 36 36 35 39 42 45 46 48 48 48 52 55 55 55 54 58 60 57 56 58 57 55 54 52 51 48 46 45 44 42 43 43 42 41 40 40 40 40 40 38 38 40 42 45 45 42 39 39 38 34 30 28 29 32 31 31 30 29 31 33 31 30 32 34 37 39 39 36 32 32 31 29 30 30 32 35 40 47 47 46 43 40 41 40 42 48 48 47 45 40 39 38 38 43 46 45
32 34 37 36 39 42 45 46 45 45 48 50 53 53 54 53 55 59 57 54 55 56 56 55 54 53 51 49 48 45 42 41 40 40 39 39 40 39 38 38 37 36 38 39 41 43 42 40 41 40 35 31 30 30 33 33 32 30 29 30 32 32 31 30 33 37 38 38 34 30 29 28 27 27 27 29 32 37 46 48 45 43 41 41 40 42 47 46 45 46 44 41 37 41 48 44 41
32 32 34 36 40 43 43 43 41 42 45 49 52 52 54 53 52 55 56 54 54 54 57 58 57 55 53 51 50 46 43 41 38 37 37 38 38 38 38 37 37 36 37 38 39 41 41 40 42 42 37 33 32 32 35 35 33 32 31 30 32 33 31 31 33 37 38 37 33 29 28 26 26 26 25 26 29 34 41 44 43 43 43 43 41 42 45 44 43 44 44 41 39 42 45 43 42
31 32 33 34 37 40 40 40 39 40 43 45 49 52 52 52 50 53 55 55 55 55 58 59 57 59 56 52 50 46 44 41 38 36 34 36 37 38 37 36 36 36 38 39 39 39 39 39 41 43 39 34 34 35 37 37 35 35 35 33 34 34 33 32 34 37 39 38 34 30 27 26 26 25 25 24 27 32 36 40 43 44 45 43 42 42 45 46 44 42 42 42 43 46 48 49 50
28 31 32 32 34 36 36 37 37 40 44 44 47 52 52 50 50 53 56 57 58 57 58 58 57 58 56 53 51 47 45 41 38 36 33 33 35 36 36 35 35 36 38 39 38 37 37 38 38 41 41 35 34 37 37 37 37 37 37 35 35 35 34 33 35 37 39 39 36 32 28 27 27 25 25 24 26 30 33 38 43 44 44 45 42 41 44 47 45 43 43 43 46 51 54 57 56
26 30 32 31 31 32 32 35 38 42 45 45 45 50 52 51 50 53 57 58 58 59 57 56 57 56 54 54 52 49 46 41 39 37 35 34 34 35 35 34 34 34 36 37 36 36 36 36 35 37 40 36 33 36 36 35 35 36 36 34 34 35 34 34 37 38 39 39 37 35 31 27 27 26 26 26 25 29 33 37 42 42 42 45 43 41 44 46 42 42 44 45 50 55 57 58 57
22 27 30 29 30 32 29 31 39 43 43 45 46 48 51 52 51 51 54 55 55 57 58 57 57 55 54 53 53 51 47 43 41 39 37 36 35 36 35 33 32 32 33 34 34 35 34 33 33 33 36 35 32 31 31 31 31 32 31 32 32 33 32 33 37 38 38 39 37 36 33 29 27 26 27 27 26 28 32 35 40 41 42 43 42 41 42 43 41 41 45 48 54 58 58 55 55
21 25 28 29 29 34 34 32 37 41 41 43 45 47 50 51 51 51 51 52 53 54 57 58 58 56 54 52 53 53 50 46 44 42 39 37 36 37 36 33 31 30 31 33 33 33 33 32 32 31 33 33 31 29 28 27 26 27 28 29 31 31 31 32 35 36 36 37 36 35 34 31 28 27 26 27 27 29 31 34 36 40 43 43 42 40 40 41 41 43 45 49 56 58 57 54 52
20 24 27 27 26 32 36 33 34 38 37 38 41 44 48 49 50 51 51 51 52 53 55 58 58 56 54 51 52 52 50 47 47 45 42 38 36 37 37 34 32 30 30 32 33 33 32 31 30 30 32 32 30 28 27 25 23 26 28 29 30 31 31 31 32 33 33 33 34 34 33 31 27 27 25 24 26 28 30 33 34 39 44 44 42 40 40 40 42 45 46 48 53 56 54 50 47
17 20 23 24 24 28 32 31 31 35 36 35 38 42 46 48 50 51 48 48 51 53 54 55 55 56 55 53 51 51 49 47 47 46 44 41 38 36 35 35 32 29 29 30 31 32 31 30 29 29 30 30 29 28 27 26 25 26 28 30 31 32 32 31 29 29 30 31 31 32 32 30 27 26 24 23 25 26 28 31 32 37 42 43 41 39 40 42 43 48 50 47 48 50 50 45 42
17 16 18 19 22 24 30 31 29 35 39 35 36 44 46 45 48 51 48 47 50 51 51 50 50 52 54 54 52 51 50 49 47 45 44 43 40 36 34 33 31 28 27 28 30 32 31 30 29 28 28 28 28 27 26 26 25 24 25 27 29 30 30 29 27 25 25 28 30 31 30 29 27 25 23 21 23 23 25 29 31 34 39 42 42 39 38 41 44 48 50 46 44 46 47 44 41
21 15 12 15 20 24 29 31 29 33 39 36 34 41 46 43 45 49 50 49 50 50 49 47 45 45 48 51 52 51 50 50 48 46 45 44 42 38 34 32 30 27 27 28 29 31 32 30 29 28 27 28 28 27 26 25 24 23 22 23 24 26 28 28 26 24 24 24 27 28 27 26 25 24 23 21 22 22 23 26 28 31 36 39 41 39 36 37 41 46 48 45 43 44 44 44 43
20 16 13 13 17 22 26 30 30 30 34 37 35 36 40 43 41 43 47 49 50 50 48 44 41 40 42 45 49 51 50 49 48 45 43 43 42 39 35 32 29 27 27 28 29 31 31 31 29 28 27 28 27 25 24 23 22 22 21 22 22 23 26 27 27 26 26 25 27 27 25 24 23 23 23 21 21 20 21 23 25 29 33 34 37 38 36 36 38 43 48 45 43 44 42 43 47
17 17 19 18 16 18 23 29 31 28 30 37 37 35 37 41 39 39 41 44 46 47 46 42 38 38 39 41 44 48 49 48 47 45 42 42 42 41 37 34 31 29 28 28 28 30 31 31 30 29 27 27 27 25 23 22 21 21 19 21 22 22 23 26 27 26 25 27 28 27 26 25 23 23 23 22 21 20 19 20 22 26 31 32 34 36 37 39 39 42 46 44 43 43 40 41 46
17 18 21 21 19 17 20 27 29 28 29 35 36 35 38 39 36 37 39 39 40 42 42 40 37 36 37 38 40 44 47 47 47 46 43 41 42 42 39 38 35 31 29 28 29 29 31 32 31 30 28 27 26 24 23 22 21 21 19 19 20 20 21 23 26 26 23 25 28 27 26 25 24 23 23 22 21 20 19 19 20 25 31 31 32 33 35 39 40 42 44 42 41 42 39 39 42
18 18 21 21 19 16 17 22 25 27 29 31 31 32 37 39 35 34 37 35 35 36 38 39 39 37 34 35 37 41 44 46 46 46 43 40 41 42 40 39 38 34 30 29 29 29 30 32 31 30 29 27 26 24 22 21 20 20 19 18 18 18 18 20 23 23 21 22 25 27 26 25 23 23 23 22 21 21 20 19 19 22 29 31 31 32 34 36 38 42 42 39 40 42 40 39 39
17 19 20 19 17 15 16 18 21 25 25 25 25 28 35 39 33 31 33 31 31 32 33 36 39 36 34 34 37 40 43 45 46 46 44 41 40 41 40 39 39 37 33 30 30 29 29 31 31 30 30 29 27 24 22 21 20 18 18 18 17 16 16 17 18 18 18 18 20 24 25 24 24 25 24 23 23 23 21 20 19 21 25 30 30 31 32 34 36 39 40 38 38 41 41 40 40
18 19 19 19 18 17 18 18 17 19 20 19 20 24 28 28 25 27 31 30 30 31 31 33 36 36 35 34 36 41 43 45 46 46 43 41 41 41 40 37 38 39 36 33 33 30 28 30 30 30 30 29 28 25 22 20 19 18 17 17 16 16 15 15 15 15 16 16 17 20 23 22 23 24 24 22 20 22 22 21 21 20 22 26 29 30 31 33 34 36 38 38 37 39 40 40 41
18 18 18 18 18 18 19 17 15 15 15 15 17 20 21 20 18 21 26 28 30 33 34 35 36 36 35 32 33 38 41 43 45 45 43 41 40 40 39 36 38 40 38 37 36 33 28 28 29 29 29 28 28 26 22 19 18 17 16 16 15 15 15 14 13 13 14 15 15 16 19 20 19 19 19 18 17 19 21 22 23 22 21 22 24 28 30 31 32 33 36 38 37 37 39 39 41
18 17 16 16 15 16 17 15 13 14 14 12 13 15 16 17 16 16 19 25 27 30 35 37 37 36 35 32 31 33 35 38 41 42 42 40 39 40 39 36 36 38 37 36 35 33 30 28 27 27 27 27 27 27 23 19 17 16 16 15 15 15 14 13 12 12 13 13 13 14 15 17 17 16 17 17 17 17 18 20 22 23 23 21 21 24 27 30 32 32 35 37 38 36 37 38 39
17 15 15 14 13 13 14 13 11 12 14 14 12 12 11 12 14 13 16 21 22 24 29 36 39 38 36 33 30 31 32 34 36 39 40 39 38 39 39 37 36 36 35 33 33 32 30 29 28 27 26 25 25 25 22 18 16 15 15 15 14 13 13 12 12 12 12 12 12 12 12 14 15 15 16 17 17 16 16 17 19 20 22 22 21 21 24 28 31 33 34 35 36 36 36 36 37
16 15 14 13 12 12 13 13 12 11 15 16 13 12 11 11 11 11 12 14 15 17 20 29 37 38 35 30 28 29 31 31 32 34 38 39 39 39 39 38 36 34 33 30 29 29 29 29 29 28 26 25 24 24 21 17 15 14 13 13 13 13 12 12 12 11 11 11 11 11 11 12 14 16 16 17 17 16 16 16 16 18 19 20 21 20 21 24 28 32 33 33 34 36 36 35 35
16 15 13 13 14 13 12 15 17 16 16 15 12 12 12 12 11 10 10 10 11 12 13 19 29 36 36 29 25 28 31 30 29 33 37 39 39 38 37 37 35 33 30 28 26 27 28 30 30 29 27 25 24 23 22 19 15 13 12 11 12 12 11 11 11 11 10 11 11 11 11 12 13 14 16 18 18 18 17 17 17 16 17 18 20 19 20 21 24 29 31 31 31 34 36 35 34
16 15 15 15 15 14 12 14 17 19 18 15 13 12 11 12 11 9 9 10 9 10 11 13 21 31 36 30 25 27 30 30 28 32 37 38 37 37 36 35 35 34 31 28 27 27 27 29 30 29 28 26 24 24 24 23 19 15 12 11 11 11 11 11 12 12 11 11 11 11 10 11 12 14 16 18 19 19 19 18 18 18 17 17 18 18 19 20 21 25 28 29 29 31 35 37 35
17 19 20 18 16 15 13 12 14 18 20 18 16 15 13 12 11 9 10 11 10 11 12 13 16 23 28 27 24 25 28 29 27 30 36 36 35 36 35 35 35 35 34 30 28 27 27 28 29 29 28 27 27 26 25 25 23 19 14 12 11 11 11 11 11 11 11 10 10 10 10 11 12 13 15 17 19 20 20 19 19 19 19 18 18 17 17 18 19 22 25 27 27 27 30 34 35
18 21 23 19 17 16 14 12 12 14 19 22 22 22 18 14 12 11 11 11 12 12 12 13 15 17 19 21 21 22 26 26 25 29 35 35 35 37 36 35 35 34 33 31 28 26 26 28 28 29 28 28 27 26 26 25 24 22 18 15 13 12 12 12 11 11 11 10 10 10 11 11 12 13 15 16 18 18 20 21 21 20 20 19 19 17 16 16 17 18 21 24 25 25 26 29 32
19 19 21 18 16 15 15 16 13 11 14 19 24 28 24 18 17 16 14 12 12 12 12 13 13 14 16 17 19 22 23 23 24 30 35 36 37 37 36 35 33 32 32 32 29 27 26 27 27 26 26 26 26 26 25 24 24 22 20 16 14 13 13 12 12 11 11 10 10 10 11 12 13 13 14 15 17 18 19 21 22 21 20 19 19 19 18 17 16 16 17 19 21 23 25 26 28